Location: ???????
(55.3754°N, 39.3545°E)
Time: 21:07:50
(UTC+00:00)

USA 281 - Pass Details

Date: 14 April 2026
Orbit: 1079 x 1080 km, 106.0° (Epoch: 5 January)

Event Time Altitude Azimuth Distance (km) Brightness Sun altitude
Exits shadow 23:41:47 30° 218° (SW) 1,831 3.8 -18.8°
Maximum altitude 23:43:53 37° 254° (WSW) 1,623 3.8 -18.6°
Drops below altitude 10° 23:49:55 10° 320° (NW) 2,933 5.6 -18.1°
Sets 23:52:41 0° 329° (NNW) 3,893 6.4 -17.8°
